Regional Weather Roundup
Issued by NWS

Home | Current Version | Previous Version | Graphics & Text | Print | Product List | Glossary On
Versions: 1 2 3 4 5 6 7 8 9 10 11 12 13 14 15 16 17 18 19 20 21 22 23 24 25 26 27 28 29 30 31 32 33 34 35 36 37 38 39 40 41 42 43 44 45 46 47 48 49 50
466
ASUS44 KMEG 081300
RWRTN
TENNESSEE HOURLY STATE WEATHER ROUNDUP
NATIONAL WEATHER SERVICE MEMPHIS TN
700 AM CST MON FEB 08 2016

TNZ002-004-019-021-049-052-054-088>092-081400-
WEST TENNESSEE

CITY           SKY/WX    TMP DP  RH WIND       PRES   REMARKS
MEMPHIS INTL   PTCLDY    39  23  52 W5        29.92F
NWS MEMPHIS      N/A     39 N/A N/A MISG        N/A
JACKSON        PTCLDY    38  23  55 W10G21    29.87S WCI  31
DYERSBURG      PTCLDY    37  25  60 W9        29.89S WCI  31
UNION CITY     CLOUDY    37  27  65 W8        29.83S WCI  31
PARIS          MOCLDY    34  23  64 W7        29.82S WCI  28
$$

TNZ008-025-027-028-033-062-065-066-081400-
NORTH MIDDLE TENNESSEE

CITY           SKY/WX    TMP DP  RH WIND       PRES   REMARKS
NASHVILLE      PTCLDY    41  26  55 W7        29.79R
CLARKSVILLE    CLOUDY    39  25  57 W13       29.78R WCI  31
COOKEVILLE     CLEAR     30  28  93 SW5       29.74F WCI  25
CROSSVILLE     PTCLDY    37  27  67 CALM      29.75R
$$

TNZ061-075-076-078-094-096-097-081400-
SOUTH MIDDLE TENNESSEE

CITY           SKY/WX    TMP DP  RH WIND       PRES   REMARKS
TULLAHOMA      CLEAR     36  28  75 SW8       29.80S WCI  29
WINCHESTER     PTCLDY    39  30  70 W7        29.81S WCI  34
MCMINNVILLE    CLEAR     37  28  70 SW6       29.78R WCI  33
COLUMBIA       CLEAR     39  28  65 W9        29.80R WCI  33
SHELBYVILLE    CLEAR     39  30  70 SW7       29.81S WCI  34
$$

TNZ017-018-042-046-047-081400-
NORTHEAST TENNESSEE

CITY           SKY/WX    TMP DP  RH WIND       PRES   REMARKS
TRI CITIES     CLOUDY    28  25  88 CALM      29.74S
$$

TNZ012-013-036-069-073-074-081400-
CENTRAL EAST TENNESSEE

CITY           SKY/WX    TMP DP  RH WIND       PRES   REMARKS
KNOXVILLE      CLOUDY    40  27  59 SW7       29.76F
OAK RIDGE      CLOUDY    39  28  64 CALM      29.77F
GATLINBURG     PTSUNNY   41  28  60 SW12      29.75F
$$

TNZ083-085-099-081400-
SOUTHEAST TENNESSEE

CITY           SKY/WX    TMP DP  RH WIND       PRES   REMARKS
CHATTANOOGA    CLOUDY    44  28  53 S7        29.81F
$$

SKY/WX REPORTED AS FAIR MEANS FEW OR NO CLOUDS BELOW
12 THOUSAND FEET.





USA.gov is the U.S. government's official web portal to all federal, state and local government web resources and services.